Meath Environmental Platform

Observations for Trim Market St

Time AQI Temp °C Hum % Pres Pa CO μg/m³ H₂S μg/m³ NO μg/m³ NO₂ μg/m³ O₃ μg/m³ SO₂ μg/m³ PM1 μg/m³ PM2.5 μg/m³ PM10 μg/m³
Thursday 16 July 2026
14:19 1 37.6 28 66,712 0 0 0 0 41.86 1.68 8.55 13.25 18.08
14:18 1 37.6 28 66,739 0 0 0 0 40.18 1.59 9.26 14.89 20.71
14:17 1 37.7 27 66,770 0 0 0 0 40.39 1.33 8.55 15.45 20.72
14:16 1 37.8 27 66,778 0 0 0 0.39 43.27 1 7.84 14.92 21.62
14:15 1 37.9 27 66,790 0 0 0 0 41.41 1.15 7.84 14.92 19.87
14:14 1 38 27 66,806 0 0 0 0 32.45 1.54 8.55 13.81 20.73
14:12 1 38 28 66,780 0 0 0 0 37.59 1.33 8.55 14.32 18.92
14:11 1 38 28 66,788 0 0 0 1.45 43.56 1.08 9.26 17.05 24.19
14:09 1 38 28 66,774 0 0 0 0 44.31 1.28 10.69 18.17 26.87
14:08 1 38 27 66,776 0 0 0 0 35.94 0.63 7.13 13.81 18.97
14:02 1 38.1 27 66,800 0 0 0 1.48 37.66 0.29 4.99 13.81 18.96
14:00 1 38.2 27 66,756 0 0 0 0 36.79 1.03 8.55 15.45 20.72
13:59 1 38.2 27 66,756 0 0 0 0 40.89 0.47 8.55 12.72 16.33
13:56 1 38.2 28 66,737 0 0 0 0 23.34 0.42 7.13 13.23 18.05
13:49 1 37.8 28 66,735 0 0 0 0 34.26 0 8.55 14.82 22.37
13:48 1 37.6 29 66,704 0 0 0 0 33.27 0 7.84 14.81 21.49
13:47 1 37.6 29 66,696 0 0 0 0 39.33 0.38 8.55 16.43 22.33
13:46 1 37.5 29 66,686 0 0 0 0 39.19 0 7.84 14.25 20.59
13:45 1 37.4 29 66,700 0 0 0 0 28.02 0 9.26 14.79 21.46
13:44 1 37.3 29 66,665 0 0 0 0 36.38 0 9.26 15.87 22.31